Regional Weather Roundup
Issued by NWS

Home | Current Version | Previous Version | Text Only | Print | Product List | Glossary On
Versions: 1 2 3 4 5 6 7 8 9 10 11 12 13 14 15 16 17 18 19 20 21 22 23 24 25 26 27 28 29 30 31 32 33 34 35 36 37 38 39 40 41 42 43 44 45 46 47 48 49 50
000
ASUS43 KOAX 271610
RWRNE

WEATHER ROUNDUP FOR NEBRASKA
NATIONAL WEATHER SERVICE OMAHA NE
1100 AM CDT SUN MAY 27 2018

NOTES: SATELLITE DATA IS BEING USED TO AUGMENT CLOUD COVER ABOVE
       12000 FEET.
       "FAIR" INDICATES FEW OR NO CLOUDS BELOW 12,000 FEET WITH NO
       SIGNIFICANT WEATHER AND/OR OBSTRUCTIONS TO VISIBILITY.


NEZ001>004-019>022-054>056-271700-
NEBRASKA PANHANDLE

CITY           SKY/WX    TMP DP  RH WIND       PRES   REMARKS
SCOTTSBLUFF    PTSUNNY   75  59  57 NW6       29.87R
ALLIANCE       CLOUDY    74  58  57 S7        29.86R
CHADRON        PTSUNNY   74  60  61 NE10      29.86R
GORDON         FAIR      76  58  54 CALM      29.85F
KIMBALL        CLOUDY    69  57  65 N9        29.94R
SIDNEY         CLOUDY    76  53  44 NW15      29.91S
$$

NEZ057>060-069>072-079>082-271700-
SOUTHWEST NEBRASKA

CITY           SKY/WX    TMP DP  RH WIND       PRES   REMARKS
NORTH PLATTE   CLOUDY    82  66  58 SW7       29.86S
IMPERIAL       CLOUDY    85  64  49 S23G39    29.84F
LEXINGTON      PTSUNNY   83  65  54 SW18      29.88S
MCCOOK         PTSUNNY   84  64  50 S16       29.86F
OGALLALA       CLOUDY    79  63  57 SW8       29.87S
$$

NEZ005>010-023>029-035>040-094-271700-
NORTH CENTRAL NEBRASKA

CITY           SKY/WX    TMP DP  RH WIND       PRES   REMARKS
VALENTINE      PTSUNNY   84  62  47 SW12      29.83R
AINSWORTH      PTSUNNY   83  63  51 S25G33    29.81F
BROKEN BOW     PTSUNNY   81  64  56 S14       29.87F
O`NEILL        SUNNY     87  61  41 SW15G22   29.84F
ORD            PTSUNNY   83  63  50 SW14G23   29.85S
THEDFORD       PTSUNNY   84  61  45 S25G32    29.86R
$$

NEZ041-046>049-061>064-073>077-083>087-271700-
SOUTH CENTRAL NEBRASKA

CITY           SKY/WX    TMP DP  RH WIND       PRES   REMARKS
GRAND ISLAND   MOSUNNY   89  62  40 SW18G24   29.87S
AURORA         MOSUNNY   89  56  33 SW18      29.87S
HASTINGS       MOSUNNY   85  60  42 SW13G24   29.89S
HEBRON         PTSUNNY   89  60  37 SW13G18   29.88S
HOLDREGE       MOSUNNY   84  63  49 SW16G24   29.89S
KEARNEY        MOSUNNY   85  61  44 SW17      29.89R
YORK           MOSUNNY   90  59  35 SW16      29.87F
$$

NEZ011>018-030>034-042>045-271700-
NORTHEAST NEBRASKA

CITY           SKY/WX    TMP DP  RH WIND       PRES   REMARKS
NORFOLK        SUNNY     91  56  30 SW10      29.82F
ALBION         CLOUDY    89  62  41 SW14G21   29.86S
BLAIR          SUNNY     88  62  41 S7        29.88R
COLUMBUS       SUNNY     90  61  37 SW14      29.86S HX  90
FREMONT        SUNNY     93  56  28 SW13      29.86S HX  91
TEKAMAH        SUNNY     92  57  30 SW12      29.84F HX  90
WAYNE          SUNNY     88  58  36 SW13      29.83S
$$

NEZ050>053-065>068-078-088>093-271700-
SOUTHEAST NEBRASKA

CITY           SKY/WX    TMP DP  RH WIND       PRES   REMARKS
LINCOLN        SUNNY     90  60  36 SW14      29.87S
OMAHA EPPLEY   MOSUNNY   90  64  42 W3        29.86R HX  91
BEATRICE       MOSUNNY   87  66  49 SW8       29.89R
FALLS CITY     SUNNY     90  63  40 SW10      29.87S HX  91
NEBRASKA CITY  SUNNY     91  60  35 SW12      29.88R HX  90
PLATTSMOUTH    SUNNY     91  57  31 SW9       29.88R HX  90
$$

NEZ044-045-051>053-067-271700-
OMAHA AREA

CITY           SKY/WX    TMP DP  RH WIND       PRES   REMARKS
OMAHA EPPLEY   MOSUNNY   90  64  42 W3        29.86R HX  91
BLAIR          SUNNY     88  62  41 S7        29.88R
FREMONT        SUNNY     93  56  28 SW13      29.86S HX  91
OFFUTT AFB     SUNNY     89  65  44 SW5       29.86R HX  91
PLATTSMOUTH    SUNNY     91  57  31 SW9       29.88R HX  90
WAHOO          FAIR      94  50  22 SW10G17   29.86S HX  90
$$




USA.gov is the U.S. government's official web portal to all federal, state and local government web resources and services.